Retour au catalogue

CZ-6A DEB

ActifPO
NORAD 61425·DEBRIS·🇨🇳 China

Lancé Aug 6, 2024 depuis Taiyuan Satellite Launch Center

Loading…

Prochains Passages (prochaines 24 heures)

TLE

FraisSource: Space-Track

Époque: Sep 14, 2026, 10:47 UTC

1 61425U 24140YS  26257.44951728  .00000193  00000-0  85821-4 0  9992
2 61425  89.0035 265.5177 0051502 278.0862  81.4486 14.18435784106748

Suivez CZ-6A DEB en temps réel avec AllMySat

Download on the App Store